ATLAS 5 CENTAUR DEB, 44650

Orbit data source: Space-Track

ATLAS 5 CENTAUR DEB, 44650 is space debris in HEO originally from a launch on Wed, 17 Oct 2018 UTC launched from the Air Force Eastern Test Range (AFETR). Debris objects in space refer to the collection of defunct objects orbiting the Earth. Examples of debris include non-operational satellites, rocket bodies, and fragments generated from explosions, collisions, or faulty payload assembly.

Loading next visibility...
Identifier
44650, 2018-079L
Orbit
HEO
Country
Flag of USUS
Related business
Flag of USUnited Launch Alliance/Lockheed Martin (US)
Manufacturer
ULA Decatur
Mission
Spacecraft
Bus & Motor
Unknown
Mass
Unknown
Launch date (UTC)
2018-10-17 (8 years ago)
Launch vehicle
Unknown
Launch site
Air Force Eastern Test Range (AFETR)
Object type
Payload
Rocket body
Debris
Shape & HBR
Unknown shape, 1.1 m
Radar Cross Section
Medium (>0.1 m² and <1 m²)

Expand to show TLE details & history
Last TLE update: 3 days ago

TLE from 3 days ago
0 ATLAS 5 CENTAUR DEB
1 44650U 18079L   26170.25759722 -.00000117  00000-0  00000-0 0  9999
2 44650  13.0684  30.8257 4451746 333.6220   9.2932  1.90439162 50193
Epoch: 2026-06-19T06:10Z
TLE epoch observation values (Epoch: 2026-06-19T06:10:56.399Z)
Latitude
0.00011°
Longitude
30.59056°
Altitude
9,407.841 km
Speed
6 km/s
True Right ascension
02h 03m 15s
True Declination
0° 00' 00"
Sunlit
Object was in daylight at epoch
Visualization orbit readout
Latitude
Unknown
Longitude
Unknown
Altitude
Unknown
Speed
Unknown
Apparent Right ascension
Unknown
Apparent Declination
Unknown
Sunlit
N/A
Visualization observer readout
Local Sidereal Time
21:39:19
Azimuth
Unknown
Elevation
Unknown
Doppler factor
Unknown
Orbital elements
Apogee altitude
33,357.861 km
Perigee altitude
8,877.142 km
Semi-major axis
27,495.638 km
Eccentricity
0.44517
Inclination
13.0684°
RAAN
30.8257°
Arg. of periapsis
333.622°
True anomaly
26.44339°
Mean anomaly
9.2932°
Eccentric anomaly
16.56537°
Mean motion
0.47604 °/min
Orbital period
756.23 mins
BSTAR
0
Loading maneuver chart data...
Computing Atmospheric mass density...

Documentation

Showing up to 5 results
|